Hatteras, NC

3:38 PM EDT on October 18, 2019 (GMT -0400)
Mitchell

Weather History for KHSE - August, 2019

Change the Weather History Date:

Friday, August 16, 2019

  Actual Average Record
Temperature  
Mean Temperature 79 °F 79 °F  
Max Temperature 84 °F 84 °F 94 °F (2016)
Min Temperature 73 °F 73 °F 59 °F (1983)
Degree Days  
Heating Degree Days 0 0  
Month to date heating degree days 0 0  
Since 1 June heating degree days 0 3  
Since 1 July heating degree days 0 0  
Cooling Degree Days 14 14  
Month to date cooling degree days 271 224  
Year to date cooling degree days 1571 1112  
Since 1 June cooling degree days 1189 969  
Growing Degree Days 29 (Base 50)    
Moisture  
Dew Point 75 °F    
Average Humidity 93    
Maximum Humidity 100    
Minimum Humidity 82    
Precipitation  
Precipitation 2.51 in 0.22 in 2.57 in (1899)
Month to date precipitation 5.30 3.34  
Year to date precipitation 37.02 33.60  
Snow  
Snow 0.00 in - - ()
Month to date snowfall 0.0  
Since 1 July snowfall 0.0  
Snow Depth 0.00 in    
Sea Level Pressure  
Sea Level Pressure 29.99 in    
Wind  
Wind Speed 7 mph ()    
Max Wind Speed 20 mph    
Max Gust Speed 29 mph    
Visibility 4.9 miles    
Events Fog , Rain , Thunderstorm    
T = Trace of Precipitation, MM = Missing Value Source: Averaged Metar Reports

Daily Weather History Graph

Daily Weather History Graph

Search for Another Location

Airport or City:

Astronomy

Aug. 16, 2019 Rise Set
Actual Time 6:22 AM EDT 7:50 PM EDT
Civil Twilight 5:55 AM EDT 8:17 PM EDT
Nautical Twilight 5:23 AM EDT 8:49 PM EDT
Astronomical Twilight 4:49 AM EDT 9:22 PM EDT
Moon 8:49 PM EDT (8/16) 7:12 AM EDT (8/16)
Length of Visible Light 14h 21m
Length of Day
13h 27m
Full, 99% of the Moon is Illuminated
Aug 16
Full
Aug 23
Last Quarter
Aug 30
New
Sep 5
First Quarter
Sep 14
Full

Hourly Weather History & Observations

Time (EDT) Temp. Heat Index Dew Point Humidity Pressure Visibility Wind Dir Wind Speed Gust Speed Precip Events Conditions
12:51 AM 79.0 °F - 77.0 °F 94% 29.98 in 8.0 mi Calm Calm - N/A   Partly Cloudy
1:06 AM 80.1 °F 86.4 °F 78.1 °F 94% 29.98 in 9.0 mi Calm Calm - N/A   Mostly Cloudy
1:17 AM 81.0 °F 88.6 °F 78.1 °F 91% 29.98 in 10.0 mi Calm Calm - N/A   Mostly Cloudy
1:48 AM 78.8 °F - 73.4 °F 83% 29.96 in 10.0 mi Variable 6.9 mph - N/A   Overcast
1:51 AM 78.1 °F - 73.0 °F 84% 29.96 in 10.0 mi NNE 10.4 mph 18.4 mph N/A   Overcast
2:06 AM 78.1 °F - 75.0 °F 90% 29.95 in 10.0 mi Variable 4.6 mph - N/A Thunderstorm Overcast
2:08 AM 78.1 °F - 75.0 °F 90% 29.96 in 10.0 mi Variable 4.6 mph - N/A Thunderstorm Thunderstorm
2:39 AM 75.9 °F - 75.0 °F 97% 29.97 in 1.8 mi North 10.4 mph 20.7 mph 0.06 in Rain , Thunderstorm Heavy Thunderstorms and Rain
2:47 AM 75.2 °F - 73.4 °F 94% 29.97 in 0.8 mi NE 12.7 mph 26.5 mph 0.19 in Rain , Thunderstorm Heavy Thunderstorms and Rain
2:51 AM 75.0 °F - 73.9 °F 96% 29.98 in 0.8 mi NE 10.4 mph 26.5 mph 0.41 in Rain , Thunderstorm Heavy Thunderstorms and Rain
2:57 AM 75.0 °F - 73.9 °F 96% 29.99 in 1.2 mi NNE 11.5 mph 19.6 mph 0.06 in Rain , Thunderstorm Heavy Thunderstorms and Rain
3:02 AM 75.0 °F - 73.9 °F 96% 29.99 in 1.5 mi NNE 10.4 mph 19.6 mph 0.09 in Rain , Thunderstorm Heavy Thunderstorms and Rain
3:15 AM 75.9 °F - 75.0 °F 97% 30.00 in 2.0 mi NNE 8.1 mph - 0.27 in Rain , Thunderstorm Heavy Thunderstorms and Rain
3:20 AM 75.9 °F - 75.0 °F 97% 29.99 in 1.5 mi NNW 12.7 mph 25.3 mph 0.28 in Rain , Thunderstorm Thunderstorms and Rain
3:23 AM 75.0 °F - 75.0 °F 100% 29.99 in 0.8 mi NNW 13.8 mph 28.8 mph 0.33 in Rain , Thunderstorm Heavy Thunderstorms and Rain
3:33 AM 73.9 °F - 73.0 °F 97% 29.99 in 0.5 mi Variable 6.9 mph 20.7 mph 0.73 in Fog , Rain , Thunderstorm Heavy Thunderstorms and Rain
3:41 AM 73.0 °F - 73.0 °F 100% 29.99 in 1.0 mi Variable 4.6 mph - 0.99 in Rain , Thunderstorm Heavy Rain
3:45 AM 73.4 °F - 73.4 °F 100% 29.99 in 2.0 mi Variable 4.6 mph - 1.00 in Rain , Thunderstorm Rain
3:51 AM 73.9 °F - 73.0 °F 97% 29.98 in 6.0 mi NNE 4.6 mph - 1.00 in Rain Light Rain
4:17 AM 75.0 °F - 73.9 °F 96% 29.98 in 2.0 mi WNW 8.1 mph - 0.04 in Rain Heavy Rain
4:20 AM 75.0 °F - 73.0 °F 94% 29.97 in 1.2 mi NW 9.2 mph - 0.07 in Rain Heavy Rain
4:34 AM 73.9 °F - 73.0 °F 97% 29.99 in 2.0 mi WSW 6.9 mph - 0.25 in Rain Rain
4:51 AM 75.0 °F - 73.9 °F 96% 29.98 in 3.0 mi WSW 6.9 mph - 0.32 in Rain Light Rain
5:51 AM 75.0 °F - 73.9 °F 96% 29.96 in 5.0 mi Calm Calm - 0.04 in Rain Light Rain
6:51 AM 77.0 °F - 75.0 °F 94% 29.98 in 7.0 mi South 6.9 mph - 0.02 in   Clear
7:51 AM 75.9 °F - 73.9 °F 94% 30.02 in 4.0 mi South 12.7 mph 17.3 mph 0.07 in Rain Light Rain
8:09 AM 75.9 °F - 73.9 °F 94% 30.02 in 2.5 mi South 11.5 mph - 0.04 in Rain , Thunderstorm Heavy Rain
8:29 AM 75.9 °F - 73.9 °F 94% 30.01 in 3.0 mi SSW 10.4 mph - 0.09 in Rain Rain
8:51 AM 75.9 °F - 73.9 °F 94% 30.01 in 7.0 mi SSW 8.1 mph - 0.11 in Rain Light Rain
9:51 AM 77.0 °F - 75.0 °F 94% 30.02 in 5.0 mi SSW 8.1 mph - 0.05 in Rain Light Rain
10:51 AM 82.0 °F 89.4 °F 75.9 °F 82% 30.02 in 10.0 mi SSE 6.9 mph - 0.00 in   Mostly Cloudy
11:51 AM 81.0 °F 87.3 °F 75.9 °F 85% 30.04 in 8.0 mi SSE 10.4 mph - 0.00 in Rain Light Rain
12:51 PM 81.0 °F 87.9 °F 77.0 °F 88% 30.03 in 9.0 mi SSE 11.5 mph 19.6 mph 0.00 in Rain Light Rain
1:51 PM 80.1 °F 85.8 °F 77.0 °F 90% 30.03 in 8.0 mi South 10.4 mph - 0.00 in Rain Light Rain
2:51 PM 78.1 °F - 75.9 °F 93% 30.02 in 4.0 mi South 12.7 mph 21.9 mph 0.06 in Rain Light Rain
3:07 PM 78.1 °F - 77.0 °F 96% 30.02 in 2.0 mi South 11.5 mph - 0.04 in Rain Rain
3:22 PM 78.1 °F - 77.0 °F 96% 30.01 in 3.0 mi South 12.7 mph - 0.06 in Rain Rain
3:51 PM 78.1 °F - 75.9 °F 93% 30.01 in 3.0 mi South 13.8 mph - 0.12 in Rain Rain
4:20 PM 78.1 °F - 75.9 °F 93% 30.03 in 2.0 mi SSW 8.1 mph - 0.06 in Rain Heavy Rain
4:40 PM 78.1 °F - 75.9 °F 93% 30.02 in 3.0 mi SSW 9.2 mph - 0.10 in Rain Light Rain
4:51 PM 77.0 °F - 75.9 °F 96% 30.01 in 4.0 mi South 12.7 mph - 0.11 in Rain Light Rain
5:51 PM 77.0 °F - 75.0 °F 94% 30.01 in 8.0 mi South 16.1 mph 23.0 mph 0.01 in Rain Light Rain
6:32 PM 78.1 °F - 75.9 °F 93% 29.99 in 2.0 mi SSE 15.0 mph - 0.04 in Rain Rain
6:51 PM 78.1 °F - 75.9 °F 93% 29.98 in 2.0 mi SSE 19.6 mph 25.3 mph 0.10 in Rain Rain
7:10 PM 78.1 °F - 75.9 °F 93% 29.97 in 3.0 mi South 18.4 mph 24.2 mph 0.03 in Rain Light Rain
7:51 PM 78.1 °F - 75.9 °F 93% 29.99 in 7.0 mi South 9.2 mph - 0.04 in Rain Light Rain
8:51 PM 78.1 °F - 75.9 °F 93% 30.00 in 10.0 mi South 12.7 mph - 0.02 in Rain Light Rain
9:51 PM 79.0 °F - 75.9 °F 90% 30.00 in 10.0 mi South 13.8 mph 19.6 mph 0.01 in Rain Light Rain
10:51 PM 79.0 °F - 77.0 °F 94% 29.99 in 10.0 mi South 11.5 mph - 0.01 in   Mostly Cloudy
11:51 PM 80.1 °F 85.8 °F 77.0 °F 90% 30.00 in 10.0 mi South 11.5 mph - 0.01 in   Partly Cloudy